Find Hawk 9A

NORAD ID: 59446 Int'l Des: 2024-066 Owner: HE360 Country: US operational
LEOCIRCULAR

Live Position

Loading 3D Globe...

About Hawk 9A

Description loading...

Upcoming Passes

Passes for default location (London). Set your location on the main map for personalized predictions.

Altitude History

Loading altitude history...

Two-Line Element Set

1 59446U 24066E 26106.62206544 .00000971 00000-0 97824-4 0 9991
2 59446 45.6098 235.3998 0001597 65.0748 295.0299 14.98947831110599
Epoch: Apr 16, 2026 • Age: 22 hours

Current Status

Altitude 572.2 km
Velocity 7.58 km/s
Sub-Earth Point -7.99°S, 24.35°E
Launch Date Apr 7, 2024
Age 2 years
Type other

Technical Details

Classification Payload
Mass 31.00 kg
Dry Mass 30.00 kg
Total Mass 31.00 kg
Length 0.45 m
Diameter 0.30 m
Span 1.00 m
Shape Box + 2 pan
Manufacturer UTIAS
Bus Type Hawk2G
Phase Status In Orbit
Owner/State HE360/US

Most Searched